Location: Domont
(49.0278°N, 2.3264°E)
Time: 11:39:56
(UTC+00:00)

DX 1 - Pass Details

Date: 02 July 2022
Orbit: 617 x 629 km, 98.4° (Epoch: 10 August)

Event Time Altitude Azimuth Distance (km) Brightness Sun altitude
Rises 21:17:01 0° 13° (NNE) 2,933 ? -9.9°
Reaches altitude 10° 21:19:14 10° 13° (NNE) 2,019 ? -10.1°
Maximum altitude 21:23:38 83° 286° (WNW) 640 ? -10.5°
Drops below altitude 10° 21:27:59 10° 199° (SSW) 1,997 ? -10.9°
Enters shadow 21:29:45 - 199° (SSW) 2,727 ? -11.1°
